WB5HZM-3 Weather Reports


Display with metric or nautical units.
time (UTC)temp
F
wind
direction
speed
MPH
gust
MPH
rain 1hr
in
rain 24hr
in
rain mn
in
humidity
%
barometer
mb
20260502130325 60 355 12.0 15.0 0.00 0.03 0.00 85 1020.7
20260502123331 59 5 11.0 14.0 0.00 0.03 0.00 86 1020.4
20260502122324 59 355 11.0 15.0 0.00 0.03 0.00 86 1020.3
20260502121323 59 360 12.0 16.0 0.00 0.03 0.00 86 1020.2
20260502120316 58 355 13.0 16.0 0.00 0.03 0.00 86 1020.0
20260502115329 58 355 13.0 16.0 0.00 0.03 0.00 87 1019.8
20260502114324 58 5 13.0 16.0 0.00 0.03 0.00 87 1019.7
20260502113321 59 360 12.0 15.0 0.00 0.03 0.00 87 1019.5
20260502112335 58 5 11.0 16.0 0.00 0.03 0.00 87 1019.3
20260502111327 58 5 13.0 16.0 0.00 0.03 0.00 86 1019.3
20260502110325 58 350 11.0 14.0 0.00 0.03 0.00 86 1019.3
20260502105318 58 355 9.0 14.0 0.00 0.03 0.00 86 1019.2
20260502104331 58 9 11.0 15.0 0.00 0.03 0.00 86 1019.1
20260502103324 58 14 11.0 16.0 0.00 0.03 0.00 87 1019.1
20260502102322 58 355 13.0 16.0 0.00 0.03 0.00 87 1019.1
20260502101316 58 5 13.0 17.0 0.00 0.03 0.00 87 1019.0
20260502100330 58 5 15.0 18.0 0.00 0.03 0.00 87 1018.9
20260502091325 58 360 12.0 15.0 0.00 0.03 0.00 87 1018.3
20260502090319 58 355 12.0 16.0 0.00 0.03 0.00 87 1018.1
20260502071315 56 61 6.0 12.0 0.00 0.03 0.00 87 1017.6
20260502070329 56 30 8.0 12.0 0.00 0.03 0.00 87 1017.6
20260502065325 56 30 8.0 11.0 0.00 0.03 0.00 87 1017.7
20260502064319 56 44 8.0 12.0 0.00 0.03 0.00 87 1017.7
20260502063333 56 37 8.0 14.0 0.00 0.03 0.00 87 1017.8
20260502062330 56 20 10.0 13.0 0.00 0.03 0.03 87 1017.9
20260502061322 56 24 9.0 15.0 0.00 0.03 0.03 87 1018.0
20260502060316 56 42 8.0 12.0 0.00 0.03 0.03 87 1018.0
20260502055316 56 28 8.0 12.0 0.00 0.03 0.03 87 1018.1
20260502054331 56 22 9.0 13.0 0.00 0.03 0.03 87 1018.1
20260502053327 56 42 7.0 11.0 0.00 0.03 0.03 87 1018.1
20260502052320 56 24 8.0 14.0 0.00 0.03 0.03 87 1018.1
20260502051319 56 35 9.0 13.0 0.00 0.03 0.03 87 1018.1
20260502050314 56 49 10.0 15.0 0.00 0.03 0.03 87 1018.0
20260502045330 56 24 9.0 13.0 0.00 0.03 0.03 87 1018.2
20260502044329 56 22 9.0 19.0 0.00 0.03 0.03 87 1018.2
20260502043324 56 47 10.0 15.0 0.00 0.03 0.03 87 1018.3
20260502042317 56 37 11.0 16.0 0.00 0.03 0.03 87 1018.2
20260502041331 56 32 12.0 19.0 0.00 0.03 0.03 87 1018.3
20260502040329 56 42 12.0 20.0 0.00 0.03 0.03 87 1018.4
20260502035323 57 15 12.0 20.0 0.00 0.03 0.03 87 1018.3
20260502034317 57 30 15.0 21.0 0.00 0.03 0.03 87 1018.3
20260502033315 57 24 12.0 17.0 0.00 0.03 0.03 87 1018.1
20260502032329 57 16 13.0 19.0 0.00 0.04 0.03 87 1017.9
20260502031325 57 21 15.0 20.0 0.00 0.04 0.03 87 1017.6
20260502030320 57 22 15.0 21.0 0.00 0.04 0.03 87 1017.0
20260502025319 57 27 16.0 21.0 0.00 0.04 0.03 87 1016.8
20260502024334 58 29 17.0 20.0 0.00 0.04 0.03 87 1017.0
20260502023329 58 19 14.0 20.0 0.00 0.04 0.03 87 1017.0
20260502022327 58 11 16.0 22.0 0.00 0.04 0.03 87 1016.8
20260502021322 58 14 15.0 19.0 0.00 0.04 0.03 87 1016.8
20260502020315 58 13 14.0 19.0 0.00 0.04 0.03 87 1016.7
20260502015329 58 30 15.0 21.0 0.00 0.04 0.03 87 1016.1
20260502014329 58 17 15.0 22.0 0.00 0.04 0.03 87 1015.9
20260502013324 58 19 17.0 20.0 0.00 0.04 0.03 87 1015.7
20260502012317 58 348 16.0 20.0 0.00 0.04 0.03 87 1015.8
20260502011316 58 5 15.0 18.0 0.00 0.04 0.03 87 1015.7
20260502010330 58 28 14.0 19.0 0.00 0.04 0.03 87 1015.8
20260502005323 58 5 15.0 20.0 0.00 0.04 0.03 87 1015.7
20260502004321 57 11 12.0 17.0 0.00 0.04 0.03 87 1015.5
20260502003316 57 18 11.0 16.0 0.00 0.04 0.03 87 1015.4
20260502002330 57 9 11.0 15.0 0.00 0.04 0.03 87 1015.3
20260502001323 57 29 10.0 14.0 0.00 0.04 0.03 87 1015.3
20260502000321 57 23 10.0 16.0 0.00 0.04 0.03 87 1015.1
20260501235314 57 63 11.0 17.0 0.00 0.04 0.03 87 1014.1
20260501234328 57 47 9.0 16.0 0.00 0.04 0.03 87 1014.3
20260501233328 58 15 12.0 18.0 0.00 0.04 0.03 87 1014.2
20260501232323 58 42 14.0 22.0 0.00 0.04 0.03 87 1013.3
20260501231315 58 44 16.0 20.0 0.00 0.04 0.03 87 1013.1
20260501230329 58 38 13.0 20.0 0.00 0.04 0.03 87 1013.2
20260501225327 58 51 15.0 19.0 0.00 0.04 0.03 87 1013.2
20260501224320 58 59 16.0 21.0 0.00 0.04 0.03 87 1012.6
20260501223314 59 35 16.0 19.0 0.00 0.04 0.03 87 1013.4
20260501222332 59 55 13.0 17.0 0.00 0.04 0.03 87 1014.8
20260501221326 59 32 13.0 18.0 0.00 0.04 0.03 87 1014.0
20260501220322 60 15 16.0 19.0 0.00 0.04 0.03 87 1014.0
20260501215318 60 21 15.0 20.0 0.00 0.04 0.03 87 1014.3
20260501214317 60 32 12.0 18.0 0.00 0.04 0.03 87 1013.9
20260501213333 60 39 16.0 20.0 0.00 0.04 0.03 87 1012.9
20260501212330 60 32 15.0 18.0 0.00 0.05 0.03 87 1012.5
20260501211328 60 39 14.0 18.0 0.00 0.05 0.03 87 1012.9
20260501210323 60 16 13.0 16.0 0.00 0.05 0.03 87 1012.9
20260501205317 60 39 11.0 16.0 0.00 0.05 0.03 86 1013.3
20260501204317 60 49 13.0 17.0 0.00 0.05 0.03 86 1013.2
20260501203331 60 44 11.0 17.0 0.00 0.05 0.03 86 1013.3
20260501202325 60 30 13.0 19.0 0.00 0.06 0.03 87 1013.1
20260501201319 60 23 14.0 18.0 0.00 0.06 0.03 87 1012.9
20260501200318 60 30 11.0 14.0 0.00 0.06 0.03 87 1012.8
20260501195314 61 23 11.0 14.0 0.00 0.06 0.03 87 1012.9
20260501194330 61 34 14.0 17.0 0.01 0.06 0.03 87 1012.1
20260501193330 60 61 14.0 18.0 0.01 0.06 0.03 87 1012.3
20260501192325 60 68 16.0 20.0 0.01 0.07 0.03 87 1012.2
20260501191321 61 67 18.0 24.0 0.01 0.07 0.03 86 1011.3
20260501190315 61 80 20.0 24.0 0.01 0.07 0.03 86 1010.9
20260501185334 61 63 16.0 28.0 0.01 0.07 0.03 86 1011.0
20260501184329 61 54 23.0 29.0 0.00 0.06 0.02 86 1010.5
20260501183325 61 53 20.0 27.0 0.00 0.06 0.02 86 1010.7
20260501182324 61 46 19.0 26.0 0.00 0.06 0.02 86 1011.3
20260501181319 61 46 20.0 25.0 0.00 0.06 0.02 86 1011.8
20260501180315 61 28 17.0 20.0 0.00 0.06 0.02 86 1012.7
20260501175314 62 27 14.0 23.0 0.00 0.06 0.02 86 1013.3
20260501174331 61 21 19.0 24.0 0.00 0.06 0.02 86 1012.8
20260501173326 61 32 16.0 22.0 0.00 0.06 0.02 86 1013.1
20260501172322 61 18 14.0 18.0 0.01 0.06 0.02 86 1013.6
20260501171322 61 45 14.0 17.0 0.01 0.06 0.02 86 1014.0
20260501170318 60 54 11.0 16.0 0.01 0.06 0.02 86 1014.3
20260501165333 61 35 10.0 15.0 0.01 0.06 0.02 86 1014.7
20260501164332 61 35 11.0 17.0 0.01 0.06 0.02 86 1015.1
20260501163328 61 27 12.0 16.0 0.01 0.06 0.02 86 1015.3
20260501162324 61 5 9.0 13.0 0.00 0.06 0.01 86 1015.5
20260501161320 61 50 8.0 14.0 0.00 0.06 0.01 86 1015.6
20260501160319 61 26 9.0 14.0 0.00 0.06 0.01 86 1015.4
20260501155315 61 5 9.0 12.0 0.01 0.06 0.01 86 1015.2
20260501154330 61 32 9.0 12.0 0.01 0.06 0.01 86 1015.1
20260501153330 60 67 10.0 13.0 0.01 0.06 0.01 86 1014.8
20260501152326 60 12 8.0 11.0 0.01 0.06 0.01 86 1014.7
20260501151321 60 44 7.0 12.0 0.01 0.06 0.01 86 1014.9
20260501150321 60 41 7.0 12.0 0.01 0.06 0.01 86 1014.7
20260501145317 60 36 7.0 11.0 0.00 0.05 0.00 86 1014.9
20260501144333 60 38 10.0 14.0 0.00 0.05 0.00 86 1015.2